Home   Weather   Dąbrowa Górnicza   Past weeks

Flag for Poland Past Weather in Dąbrowa Górnicza, Poland — Yesterday and Last 2 Weeks

Now
52 °F

Partly sunny.


Feels Like: 45 °F
Forecast: 39 / 44 °F
Wind: 23 mph from Southwest

Location: Katowice Airport

Current Time: Feb 28, 2017 at 1:42:58 pm

Latest Report: Feb 28, 2017 at 1:00 pm


Visibility: N/A

Pressure: 29.50 "Hg

Humidity: 50%

Dew Point: 34 °F

Location of Dąbrowa GórniczaLocation

Past Weather in Dąbrowa Górnicza — Graph

°F

Dąbrowa Górnicza Temperature Yesterday

Maximum temperature yesterday: 59 °F (at 1:30 pm)
Minimum temperature yesterday: 37 °F (at 7:00 am)
Average temperature yesterday: 48 °F

High & Low Weather Summary for the Past Weeks

 TemperatureHumidityPressure
High59 °F (Feb 27, 1:30 pm)100% (Feb 14, 11:30 pm)30.63 "Hg (Feb 14, 11:30 pm)
Low14 °F (Feb 15, 6:00 am)21% (Feb 27, 1:30 pm)29.30 "Hg (Feb 23, 10:00 pm)
Average36 °F77%30.02 "Hg
* Reported Feb 13 12:00 pm — Feb 28 12:30 pm, Dąbrowa Górnicza, Weather by CustomWeather, © 2017

Note: Actual official high and low records may vary slightly from our data, if they occured in-between our weather recording intervals... More about our weather records

Advertising

Dąbrowa Górnicza Weather History for the Previous 24 Hours

Scroll right to see more
 ConditionsComfort  
Time TempWeatherWind HumidityBarometerVisibility
12:30 pm
Tue, Feb 28
52 °FOvercast.22 mph47%29.50 "HgN/A
12:00 pm54 °FSunny.18 mph44%29.47 "Hg10 mi
11:30 am52 °FPassing clouds.14 mph47%29.47 "HgN/A
11:00 am52 °FSunny.16 mph50%29.47 "Hg10 mi
10:30 am52 °FSunny.20 mph47%29.47 "Hg10 mi
10:00 am52 °FSunny.17 mph47%29.47 "Hg10 mi
9:30 am50 °FSunny.12 mph54%29.47 "Hg10 mi
9:00 am46 °FPassing clouds.3 mph62%29.47 "HgN/A
8:30 am43 °FSunny.6 mph76%29.47 "Hg10 mi
8:00 am43 °FSunny.7 mph71%29.47 "Hg10 mi
7:30 am43 °FPassing clouds.6 mph71%29.47 "HgN/A
7:00 am43 °FPassing clouds.6 mph71%29.50 "HgN/A
6:30 am43 °FPassing clouds.5 mph71%29.50 "HgN/A
6:00 am41 °FClear.5 mph76%29.53 "Hg10 mi
5:30 am43 °FClear.7 mph71%29.53 "Hg10 mi
5:00 am45 °FClear.8 mph66%29.53 "Hg10 mi
4:30 am43 °FClear.9 mph71%29.56 "Hg10 mi
4:00 am43 °FClear.7 mph71%29.56 "Hg10 mi
3:30 am43 °FClear.6 mph71%29.56 "Hg10 mi
3:00 am45 °FPassing clouds.5 mph66%29.56 "HgN/A
2:30 am45 °FClear.6 mph66%29.59 "Hg10 mi
2:00 am45 °FClear.7 mph66%29.59 "Hg10 mi
1:30 am46 °FClear.9 mph66%29.59 "Hg10 mi
1:00 am48 °FClear.14 mph62%29.59 "Hg10 mi
12:30 am48 °FClear.9 mph62%29.62 "Hg10 mi
12:00 am48 °FClear.12 mph62%29.62 "Hg10 mi
11:30 pm
Mon, Feb 27
50 °FPassing clouds.13 mph54%29.65 "HgN/A
11:00 pm50 °FClear.15 mph58%29.65 "Hg10 mi
10:30 pm50 °FClear.14 mph54%29.65 "Hg10 mi
10:00 pm50 °FPassing clouds.10 mph54%29.68 "HgN/A
9:30 pm50 °FPassing clouds.14 mph54%29.68 "HgN/A
9:00 pm50 °FClear.13 mph54%29.71 "Hg10 mi
8:30 pm52 °FClear.14 mph50%29.71 "Hg10 mi
8:00 pm52 °FClear.14 mph50%29.71 "Hg10 mi
7:30 pm52 °FClear.15 mph47%29.71 "Hg10 mi
7:00 pm54 °FClear.10 mph41%29.71 "Hg10 mi
6:30 pm52 °FClear.10 mph41%29.71 "Hg10 mi
6:00 pm52 °FClear.7 mph35%29.71 "Hg10 mi
5:30 pm54 °FClear.13 mph35%29.74 "Hg10 mi
5:00 pm55 °FSunny.13 mph31%29.74 "Hg10 mi
4:30 pm57 °FSunny.10 mph29%29.74 "Hg10 mi
4:00 pm59 °FPassing clouds.10 mph27%29.74 "HgN/A
3:30 pm57 °FSunny.10 mph29%29.77 "Hg10 mi
3:00 pm59 °FPassing clouds.12 mph25%29.77 "HgN/A
2:30 pm59 °FPassing clouds.13 mph25%29.80 "HgN/A
2:00 pm59 °FPassing clouds.13 mph23%29.80 "HgN/A
1:30 pm59 °FSunny.13 mph21%29.83 "Hg10 mi
1:00 pm57 °FSunny.17 mph23%29.83 "Hg10 mi
Weather by CustomWeather, © 2017

See weather overviewHow to use our weather pages